Torna al catalogo

STARLINK-33619

AttivoComunicazioniVLEO
NORAD 63324·PAYLOAD·🇺🇸 United States

Lanciato Mar 18, 2025 da Cape Canaveral Space Force Station

Loading…

Prossimi Passaggi (prossime 24 ore)

TLE

AggiornatoSource: CelesTrak SupGP

Epoca: Sep 14, 2026, 21:12 UTC

1 63324C 25057T   26257.88381944  .00069229  00000+0  25071-2 0  2575
2 63324  43.0044  41.9371 0001646 277.1484 215.6397 15.27549227    18

Traccia STARLINK-33619 in tempo reale con AllMySat

Download on the App Store